Regional Weather Roundup
Issued by NWS

Home | Current Version | Previous Version | Text Only | Print | Product List | Glossary Off
Versions: 1 2 3 4 5 6 7 8 9 10 11 12 13 14 15 16 17 18 19 20 21 22 23 24 25 26 27 28 29

000
ASUS45 KSLC 251410
RWRUT

UTAH REGIONAL WEATHER ROUNDUP
NATIONAL WEATHER SERVICE SALT LAKE CITY UT
800 AM MDT SAT OCT 25 2014

UTZ001>011-023>025-251500-

NORTHERN UTAH

CITY           SKY/WX    TMP DP  RH WIND       PRES   REMARKS
BRIGHAM CITY   CLEAR     44  32  64 NW5       30.08R
HILL AFB       NOT AVBL
LOGAN          CLEAR     33  29  85 CALM      30.08F
OGDEN          CLEAR     50  28  42 S10       30.08R
PROVO AIRPORT  CLEAR     48  30  49 SE6       30.15R
SALT LAKE CITY CLEAR     58  29  33 SE12      30.07S
VERNAL         PTCLDY    40  31  70 W5        30.25R
WENDOVER       CLEAR     39  28  65 SE3       30.05R
HEBER CITY     CLEAR     30  27  86 CALM      30.21S
WEST JORDAN    CLEAR     61  36  39 S24G32    30.10F

$$

UTZ012>022-026-027-251500-

SOUTHERN/CENTRAL UTAH

CITY           SKY/WX    TMP DP  RH WIND       PRES   REMARKS
BLANDING       CLEAR     44  30  58 N7        30.37S
BRYCE CANYON   CLEAR     26  23  88 SW6       30.35S WCI  19
CEDAR CITY     PTCLDY    44  32  62 W9        30.20S
DELTA          CLEAR     52  27  38 S10       30.13F
HANKSVILLE       N/A     36  30  80 CALM      30.24R
MILFORD        CLEAR     41  29  62 S8        30.15F
MOAB/CYNLANDS  CLEAR     48  32  53 SE5       30.20S
PRICE          CLEAR     42  31  64 N7        30.26S
ST GEORGE      SUNNY     52  30  43 CALM      30.14S
KANAB            N/A     39  30  70 NE6       30.28R WCI  35

$$

REGIONAL REPORTS     COLORADO/ARIZONA

CITY           SKY/WX    TMP DP  RH WIND       PRES   REMARKS
CRAIG, CO      CLEAR     26  22  84 CALM      30.31F
GRAND JUNCTION CLEAR     45  32  60 SE18      30.25S
RIFLE          CLEAR     33  29  85 E3        30.33R
MONTROSE       CLEAR     39  27  62 S8        30.33S WCI  33
CORTEZ         CLEAR     31  25  78 CALM      30.32S
PAGE, AZ       CLEAR     53  33  46 SW3       30.20S
GRAND CANYON   CLEAR     30  24  78 CALM      30.34S HAZE
KINGMAN        PTCLDY    64  40  41 SE14      30.12S
FLAGSTAFF      CLEAR     38  34  85 CALM      30.36R

$$

REGIONAL REPORTS    NEVADA/IDAHO/WYOMING

CITY           SKY/WX    TMP DP  RH WIND       PRES   REMARKS
LAS VEGAS, NV  PTCLDY    64  39  39 SW7       29.98S
ELY            CLEAR     49  30  48 S16       30.13F
ELKO           CLEAR     51  29  42 VRB3      30.01R
POCATELLO, ID  CLEAR     39  31  72 CALM      30.02F
BURLEY         CLEAR     48  33  56 E8        29.95F
EVANSTON, WY   CLEAR     49  20  31 SE6       30.23F
ROCK SPRINGS   PTCLDY    39  26  59 CALM      30.24F
KEMMERER       PTCLDY    32  25  74 N12       30.26S WCI  23

$$



USA.gov is the U.S. government's official web portal to all federal, state and local government web resources and services.